Regional Weather Roundup
Issued by NWS

Home | Current Version | Previous Version | Text Only | Print | Product List | Glossary Off
Versions: 1 2 3 4 5 6 7 8 9 10 11 12 13 14 15 16 17 18 19 20 21 22 23 24 25 26 27 28 29 30 31 32 33 34 35 36 37 38 39 40 41 42 43 44 45 46 47 48 49 50

341
ASUS43 KOAX 290410
RWRNE

WEATHER ROUNDUP FOR NEBRASKA
NATIONAL WEATHER SERVICE OMAHA NE
1100 PM CDT TUE MAR 28 2017

NOTES: SATELLITE DATA IS BEING USED TO AUGMENT CLOUD COVER ABOVE
       12000 FEET.
       "FAIR" INDICATES FEW OR NO CLOUDS BELOW 12,000 FEET WITH NO
       SIGNIFICANT WEATHER AND/OR OBSTRUCTIONS TO VISIBILITY.

  * THESE STATIONS DO NOT REPORT WEATHER SUCH AS RAIN...SNOW OR FOG.

NEZ001>004-019>022-054>056-290500-
NEBRASKA PANHANDLE

CITY           SKY/WX    TMP DP  RH WIND       PRES   REMARKS
SCOTTSBLUFF    LGT RAIN  40  37  89 E8        30.12S WCI  34
ALLIANCE       LGT RAIN  38  36  92 E6        30.12R WCI  33
CHADRON        LGT RAIN  41  38  89 S5        30.14R
KIMBALL        LGT RAIN  37  37 100 E6        30.09R WCI  32
SIDNEY         LGT RAIN  39  38  96 NE6       30.08S WCI  35
$$

NEZ057>060-069>072-079>082-290500-
SOUTHWEST NEBRASKA

CITY           SKY/WX    TMP DP  RH WIND       PRES   REMARKS
NORTH PLATTE   LGT RAIN  43  41  93 NE7       30.07S FOG
IMPERIAL       LGT RAIN  42  40  92 NE14      30.06R FOG
LEXINGTON      LGT RAIN  43  41  92 NE7       30.06R
MCCOOK         CLOUDY    43  42  97 NE14      30.03R FOG
OGALLALA       LGT RAIN  43  41  93 NE8       30.08F
$$

NEZ005>010-023>029-035>040-094-290500-
NORTH CENTRAL NEBRASKA

CITY           SKY/WX    TMP DP  RH WIND       PRES   REMARKS
VALENTINE      CLOUDY    42  39  89 NE7       30.13S
AINSWORTH      LGT RAIN  42  42 100 NE8       30.12S
BROKEN BOW     LGT RAIN  45  40  82 NE6       30.06F
O`NEILL        CLOUDY    48  42  80 N6        30.10S
ORD            CLOUDY    45  40  82 E5        30.07S
THEDFORD       DRIZZLE   44  43  97 NE7       30.10S
$$

NEZ041-046>049-061>064-073>077-083>087-290500-
SOUTH CENTRAL NEBRASKA

CITY           SKY/WX    TMP DP  RH WIND       PRES   REMARKS
GRAND ISLAND   LGT RAIN  43  43 100 NE12      30.06F FOG
AURORA         RAIN      43  43  99 NE10      30.07F
HASTINGS       LGT RAIN  43  41  93 NE14      30.05F FOG
HEBRON         LGT RAIN  45  43  93 E9        30.05S
HOLDREGE       LGT RAIN  43  41  94 NE13      30.05R
KEARNEY *      CLOUDY    43  39  87 NE10      30.06R
YORK           LGT RAIN  45  45 100 NE9       30.07F
$$

NEZ011>018-030>034-042>045-290500-
NORTHEAST NEBRASKA

CITY           SKY/WX    TMP DP  RH WIND       PRES   REMARKS
NORFOLK        CLOUDY    46  41  82 CALM      30.10R
ALBION         CLOUDY    46  41  84 NE3       30.10F
BLAIR          CLOUDY    48  43  82 NE10      30.08S
FREMONT        CLOUDY    48  42  79 NE7       30.10R
TEKAMAH        CLOUDY    48  42  80 NE7       30.10F
WAYNE          CLOUDY    47  44  90 E3        30.12R
$$

NEZ050>053-065>068-078-088>093-290500-
SOUTHEAST NEBRASKA

CITY           SKY/WX    TMP DP  RH WIND       PRES   REMARKS
LINCOLN        CLOUDY    47  43  86 NE9       30.09R
OMAHA EPPLEY   CLOUDY    49  41  74 NE15      30.08S
BEATRICE       DRIZZLE   47  44  90 NE5       30.05R
FALLS CITY     CLOUDY    51  48  89 E9        30.04S
NEBRASKA CITY  CLOUDY    49  42  77 NE10      30.04F
PLATTSMOUTH    CLOUDY    48  40  74 E9        30.07R
$$

NEZ044-045-051>053-067-290500-
OMAHA AREA

CITY           SKY/WX    TMP DP  RH WIND       PRES   REMARKS
OMAHA EPPLEY   CLOUDY    49  41  74 NE15      30.08S
BLAIR          CLOUDY    48  43  82 NE10      30.08S
FREMONT        CLOUDY    48  42  79 NE7       30.10R
MILLARD        CLOUDY    51  44  75 NE5       30.08S
OFFUTT AFB     CLOUDY    48  42  78 NE10      30.08R
PLATTSMOUTH    CLOUDY    48  40  74 E9        30.07R
WAHOO          DRIZZLE   47  42  82 NE9       30.08R
$$




USA.gov is the U.S. government's official web portal to all federal, state and local government web resources and services.